Theta_e
304 304 304 304 302 303 303 303 302 302 303 303 303 303 303 304 304 298 294 296 297 290 293 297 298 295 296 298 296 300 301 301 303 296 293 293 293 296 295 299 296 295 293 296 296 294 294 317 319 310 313 322 320 317
303 303 303 302 302 302 302 302 303 303 302 302 302 303 303 303 303 301 290 297 297 292 292 298 299 301 300 299 295 302 299 298 307 297 299 298 298 299 298 296 306 299 303 299 298 298 313 315 315 320 323 321 323 321
303 302 302 301 302 302 302 303 303 302 302 303 303 303 303 303 303 301 294 293 293 290 292 292 295 301 302 303 303 298 303 307 308 306 299 299 297 299 295 299 301 305 308 304 304 309 310 317 318 319 318 320 323 325
304 303 302 301 302 301 302 303 302 303 303 303 303 304 303 303 303 302 296 294 295 292 288 292 303 298 304 303 303 303 304 310 309 307 299 298 296 301 298 301 299 304 306 305 305 310 313 317 320 321 320 321 320 321
303 303 302 301 301 302 302 303 303 303 303 303 303 304 304 304 304 300 295 296 298 294 288 290 297 300 301 302 303 302 304 304 303 301 299 297 301 303 301 300 301 304 304 302 301 311 309 314 316 322 320 320 322 320
303 303 302 301 301 302 302 302 302 303 303 303 303 304 304 304 304 294 295 302 303 303 294 286 295 298 301 304 302 302 304 302 302 300 301 304 309 305 295 296 306 310 312 312 309 317 319 320 321 321 321 321 321 320
303 302 301 301 301 301 302 302 302 303 303 303 303 304 304 305 296 292 294 301 304 301 296 289 289 299 307 304 299 300 301 301 302 301 301 302 303 306 297 292 302 307 310 314 314 315 309 313 315 318 320 321 320 320
302 302 301 301 301 301 302 302 302 302 302 303 303 304 304 306 302 294 298 304 301 299 299 288 290 297 306 303 300 304 297 299 300 301 301 299 300 302 294 298 300 306 311 311 315 313 312 314 319 318 319 318 316 314
303 302 301 301 301 301 301 302 302 303 303 303 303 304 300 297 296 298 310 307 299 297 291 294 289 292 303 301 303 303 302 295 300 297 298 299 294 293 298 300 301 305 304 306 309 314 315 315 316 318 316 315 314 313
303 302 301 300 301 301 301 301 302 302 302 304 298 297 298 300 312 307 298 295 295 297 296 288 292 290 297 296 295 296 297 296 292 296 298 294 292 297 302 302 302 305 306 307 307 308 310 312 313 315 315 315 316 315
303 302 301 300 301 301 301 301 301 302 301 293 290 295 297 309 298 295 291 291 294 294 294 293 293 293 300 294 293 296 294 295 290 293 293 291 290 296 306 302 304 305 307 307 309 311 313 313 314 316 315 315 316 317
303 302 301 300 300 301 301 301 301 294 291 292 293 295 293 295 293 292 290 293 293 293 299 298 300 298 299 300 295 296 293 294 289 297 295 289 298 303 307 308 309 306 308 309 310 312 313 314 314 313 315 315 314 317
303 302 301 300 300 301 301 300 300 301 300 295 292 290 292 291 282 288 288 292 294 299 300 299 295 298 298 301 297 294 293 291 298 293 292 297 300 306 305 308 310 310 309 309 310 310 314 316 316 315 316 315 315 317
303 303 302 301 300 301 301 300 301 299 293 291 290 277 284 282 287 294 295 293 300 300 297 299 297 295 298 295 297 295 295 297 294 292 293 301 303 305 306 308 308 307 309 308 308 308 311 315 316 318 318 316 316 314
303 302 301 300 300 300 300 301 301 294 291 290 291 280 287 292 294 295 295 294 298 298 296 295 295 295 294 294 295 295 295 292 289 290 297 303 304 306 307 308 308 307 310 305 306 308 311 316 316 315 314 313 312 312
302 301 298 301 301 301 301 299 296 294 294 292 290 287 292 292 291 292 293 296 298 299 299 297 291 293 293 293 294 293 294 291 294 299 301 302 303 307 309 309 309 311 311 311 312 312 314 312 310 309 309 307 308 308
302 294 302 303 302 301 301 293 294 293 292 291 288 291 291 290 294 293 296 298 302 299 293 294 290 291 295 291 292 298 294 297 299 299 299 300 303 306 311 311 311 310 309 308 308 308 308 309 309 308 307 310 311 312
294 297 302 301 299 297 294 293 293 293 288 288 286 288 293 298 296 298 298 299 299 295 294 291 293 290 290 290 290 296 296 299 298 299 303 303 304 308 313 310 309 308 307 308 308 306 306 306 306 306 307 308 309 309
298 297 302 301 297 293 293 294 294 287 289 289 290 293 297 296 297 297 297 298 299 298 297 296 293 293 294 297 296 297 298 298 300 302 304 306 309 311 309 309 308 307 306 306 306 305 306 307 307 307 308 308 307 309
303 302 301 299 298 292 292 288 293 288 286 290 295 294 294 294 297 299 301 301 300 298 295 294 295 296 296 298 301 302 302 303 302 301 304 305 307 307 306 306 305 305 305 305 305 304 306 306 307 307 308 307 307 307
298 296 299 295 294 293 291 287 289 291 290 291 293 292 292 297 297 297 297 300 298 295 294 297 298 300 302 304 304 304 305 306 306 305 303 303 305 306 306 306 307 306 305 305 304 304 305 305 306 307 307 307 308 309
294 301 294 295 293 293 288 292 290 292 290 291 292 295 293 293 294 295 298 292 294 295 298 298 300 302 302 302 304 307 308 307 307 306 304 304 304 305 306 307 307 306 306 307 307 306 307 308 309 309 308 309 309 311
299 298 295 296 291 284 282 293 290 292 287 291 292 291 292 293 294 297 290 291 293 298 298 301 303 305 304 306 307 307 308 307 306 306 306 306 307 308 307 307 307 306 304 305 307 307 306 305 307 310 311 311 310 309
299 292 290 291 288 281 293 291 294 292 291 289 289 289 291 292 293 289 287 290 293 298 301 304 306 304 305 305 304 305 306 307 306 306 306 306 305 306 308 307 307 306 306 307 307 307 307 307 305 307 306 305 306 305
282 282 286 277 292 289 288 289 289 288 287 290 290 290 291 293 287 286 285 290 294 297 299 303 304 304 303 304 305 306 308 307 305 304 306 306 306 306 306 307 307 308 309 307 306 307 306 307 305 304 303 301 301 300
282 290 288 289 288 287 288 286 287 288 290 292 292 294 294 290 287 285 289 292 294 296 298 299 300 303 304 305 304 305 305 308 308 305 306 307 306 305 304 304 304 305 309 309 307 306 307 307 305 302 300 298 296 298
285 287 292 294 292 291 288 290 291 289 290 292 293 291 291 287 285 290 295 297 296 299 301 301 299 299 301 303 305 306 307 306 306 306 307 306 306 305 305 303 301 303 306 308 307 308 306 303 301 300 300 298 298 299
289 287 286 290 289 290 289 291 294 293 295 295 295 291 290 290 290 295 297 300 300 300 301 301 301 302 302 303 304 305 304 305 305 301 299 299 300 301 300 299 298 296 302 302 302 302 302 301 300 300 300 299 298 299
287 291 291 291 294 293 296 295 295 297 299 295 292 293 293 296 298 298 299 301 302 301 300 297 297 299 299 299 299 299 299 298 297 295 295 294 295 297 299 300 299 295 295 296 295 297 298 298 298 299 300 300 302 303
296 295 294 296 294 293 296 297 297 300 302 302 301 299 298 298 300 302 301 300 300 297 296 297 297 298 296 297 298 300 302 301 299 297 295 294 296 298 299 299 299 296 296 296 296 296 295 296 297 300 301 301 301 300
300 298 296 296 294 297 299 301 301 301 301 300 302 299 298 299 302 303 302 303 302 300 301 301 300 300 299 298 298 297 296 299 300 301 300 299 300 301 301 301 300 301 302 303 303 302 303 303 303 302 301 298 297 296
299 298 296 294 295 300 302 299 298 298 299 298 297 299 298 298 296 302 305 305 304 302 301 301 299 298 299 299 299 299 297 299 299 300 300 299 299 300 300 301 302 303 303 303 303 302 302 301 300 298 297 296 295 295
301 300 298 297 296 296 298 299 298 296 297 297 298 298 297 297 296 301 307 305 304 303 302 303 303 305 304 301 301 301 299 299 296 293 292 292 293 296 298 300 302 303 304 303 302 301 299 298 296 295 295 294 293 292
Wind_Speed
9 10 12 9 10 12 11 12 13 13 13 14 14 14 14 15 15 7 5 3 2 2 8 5 4 3 4 0 1 5 4 6 6 7 2 3 1 3 2 0 1 5 4 4 2 1 7 17 5 4 6 7 8 5
8 10 9 10 10 10 11 12 13 11 12 13 13 13 13 12 13 11 3 5 3 3 8 5 14 16 13 11 1 5 5 3 2 4 4 4 4 4 2 2 4 1 4 5 4 3 1 4 4 3 6 8 13 13
9 7 9 9 10 10 12 13 12 12 13 13 13 13 13 12 11 8 3 3 3 3 7 2 8 9 13 19 10 4 2 2 3 3 2 3 3 2 1 2 0 4 1 2 3 5 2 6 1 3 12 16 15 19
7 8 9 9 9 10 12 13 13 13 14 13 14 14 13 12 11 9 4 3 3 3 3 8 5 9 6 10 13 11 4 5 5 2 2 2 2 4 2 3 3 4 2 1 3 3 1 7 6 6 8 9 12 13
9 10 9 9 9 10 12 13 14 15 15 15 15 15 15 14 11 5 3 4 4 1 3 8 15 7 7 8 13 7 7 5 4 3 2 2 4 4 4 2 2 1 2 3 3 4 4 3 2 5 13 12 13 16
10 12 9 10 9 10 12 13 15 16 17 17 17 16 16 14 9 3 2 1 5 3 3 5 6 8 8 3 8 8 10 5 4 4 3 3 4 2 4 1 4 2 2 5 5 2 2 6 4 2 12 17 16 17
9 8 9 9 10 11 13 13 15 17 18 19 18 17 15 12 2 3 3 2 2 1 1 5 6 7 5 3 1 1 1 3 5 3 4 4 8 7 3 2 6 6 3 5 6 6 2 2 5 4 8 7 8 8
10 9 9 9 10 11 13 14 16 18 20 21 19 17 14 6 3 4 4 9 5 1 1 3 6 6 5 6 4 1 2 2 2 4 1 6 4 4 4 6 4 4 7 4 6 3 3 5 7 6 5 10 12 12
12 10 9 9 10 11 13 15 18 20 22 22 19 12 2 1 2 4 5 8 2 3 1 2 2 3 2 2 2 4 2 1 3 5 5 4 2 4 7 7 4 6 6 5 5 5 6 5 5 6 7 9 12 10
14 11 10 10 10 10 12 15 18 22 27 16 3 1 2 3 7 5 4 2 0 2 2 3 3 4 3 3 4 3 1 4 2 6 3 4 5 5 7 9 9 8 9 6 5 4 4 4 7 10 12 9 12 12
12 12 11 10 9 10 11 14 17 22 10 5 4 2 3 5 3 1 1 2 2 3 4 5 5 3 2 1 3 2 2 2 1 6 5 2 1 6 13 9 7 9 9 9 8 8 9 8 11 12 7 8 11 14
12 12 10 9 9 9 10 11 14 6 1 3 5 5 4 1 1 2 3 2 3 3 3 2 3 4 4 2 2 3 2 2 5 3 2 3 1 7 10 13 12 8 10 10 8 8 5 8 8 6 7 8 10 13
12 12 10 9 9 9 9 10 11 12 9 1 1 2 1 3 3 3 3 2 3 5 3 3 4 1 4 3 2 0 2 5 2 1 2 2 4 8 9 11 14 15 12 8 8 8 8 10 9 7 9 7 7 13
11 11 9 9 9 9 9 10 10 7 2 1 3 4 4 4 4 2 4 4 5 3 4 2 3 1 1 2 2 3 4 3 4 6 5 6 12 11 11 10 9 13 7 12 11 9 6 8 12 7 7 10 12 12
10 11 9 9 10 10 10 10 10 2 2 3 2 3 5 5 4 3 4 1 2 1 2 3 3 2 2 2 2 2 3 3 3 2 3 6 8 11 13 13 11 10 5 8 4 7 9 11 11 9 3 8 10 12
10 7 6 11 12 9 8 5 2 3 3 3 4 3 3 3 5 2 1 2 3 3 3 4 3 2 2 3 3 4 3 3 2 2 4 5 9 11 14 13 7 3 9 9 10 13 15 12 10 8 10 9 9 10
12 3 4 7 11 6 4 0 2 4 4 3 4 3 6 4 3 1 2 3 4 2 2 2 2 1 3 3 3 3 3 3 4 6 3 5 8 13 13 2 6 10 11 13 14 13 15 11 10 13 15 10 12 12
2 4 6 6 6 3 2 3 3 4 4 4 2 6 3 4 4 4 3 4 3 2 2 1 0 2 3 3 2 2 4 5 4 5 7 7 7 10 5 7 9 10 12 13 13 12 12 13 13 10 12 12 13 13
3 5 5 4 3 0 2 4 4 2 4 3 3 4 4 3 3 2 2 3 2 1 1 1 2 2 2 2 4 8 7 5 8 8 8 9 8 4 6 9 10 12 13 12 10 9 8 10 8 7 7 8 8 7
8 7 4 1 2 1 4 4 3 1 3 3 4 5 4 1 3 2 2 2 1 1 0 1 2 1 2 5 5 7 8 8 7 5 2 6 6 9 8 8 8 10 10 11 10 10 7 8 7 6 6 8 9 8
1 3 3 1 2 3 3 3 3 3 2 4 4 4 3 3 3 3 3 4 1 2 3 3 3 5 5 6 6 7 8 5 4 4 4 7 6 8 8 8 8 8 8 8 9 9 8 6 5 5 6 6 6 6
0 6 1 3 2 2 1 3 1 3 3 2 4 3 2 2 3 3 3 4 3 2 3 4 5 4 5 6 6 2 4 10 10 7 7 8 8 7 6 6 9 9 8 8 7 7 7 5 5 5 5 5 5 3
3 2 2 2 1 3 7 2 4 3 4 2 3 2 2 3 4 4 2 1 3 3 7 5 6 4 3 4 9 10 9 11 9 8 8 8 8 8 8 7 7 10 9 5 5 6 5 5 5 4 3 3 3 3
3 1 3 2 2 3 3 2 3 2 2 2 2 2 3 3 4 4 3 2 3 5 5 6 4 4 6 9 9 8 8 7 8 8 7 8 8 7 7 6 6 5 5 4 7 6 6 5 4 4 5 5 5 4
3 6 3 5 2 3 2 3 2 1 1 0 2 3 3 3 4 4 3 5 7 8 8 7 7 6 6 7 7 7 7 6 7 8 5 6 7 6 7 6 6 4 3 6 5 6 5 4 5 5 5 5 6 7
1 1 1 2 1 1 1 2 2 2 2 1 5 3 1 3 5 4 3 3 2 3 5 5 6 5 6 4 6 6 4 2 6 6 3 3 4 6 5 5 4 4 3 3 4 4 4 4 5 7 6 6 9 7
1 2 2 2 1 1 1 2 2 2 2 3 3 2 2 5 5 5 4 3 3 3 3 4 3 4 2 4 3 3 3 3 4 4 3 3 3 3 4 5 4 2 1 2 1 1 4 4 4 4 3 1 3 3
1 1 2 1 2 2 2 2 0 2 2 4 4 2 3 4 7 4 4 4 4 4 5 5 4 4 4 3 4 3 2 3 3 4 4 5 4 4 6 4 4 7 5 3 4 5 4 5 4 4 5 4 1 1
1 2 2 3 3 4 2 4 3 3 3 3 4 4 4 4 3 3 4 4 5 4 5 6 5 5 5 4 4 3 4 5 6 8 7 3 3 3 1 2 2 2 3 2 4 4 5 4 3 3 5 4 5 7
2 4 2 2 4 5 3 2 2 2 4 6 4 4 3 4 3 3 3 3 4 2 4 5 4 7 5 6 6 8 7 5 4 5 5 3 4 3 3 3 2 2 2 2 1 4 9 5 6 6 8 8 8 8
5 3 1 3 3 1 2 3 2 2 2 2 2 3 4 2 4 3 2 3 2 4 8 8 7 6 6 5 5 6 5 5 8 8 6 4 6 7 5 5 3 4 5 6 5 7 9 9 9 9 10 12 11 9
2 3 3 3 4 4 4 4 4 3 3 4 3 4 5 5 6 5 3 7 7 6 5 6 6 3 4 4 4 4 7 4 5 5 8 5 5 5 5 5 5 5 6 6 5 6 9 9 9 9 9 10 10 10
3 4 4 3 2 1 1 2 2 3 2 3 2 3 3 2 3 3 3 3 5 5 4 3 4 3 5 7 7 5 6 5 9 10 10 8 8 7 5 4 5 6 9 8 9 8 11 12 11 11 10 9 9 7
Wind_Direction
314 324 308 292 313 317 325 332 334 335 337 341 344 346 349 351 353 5 276 295 31 287 277 238 270 262 333 348 42 294 19 353 0 35 45 267 205 252 163 0 263 202 165 204 122 187 271 351 9 58 278 342 356 71
291 303 319 318 313 321 322 322 321 332 334 336 337 340 342 345 345 4 317 332 346 189 253 293 265 252 230 244 347 353 152 221 17 22 357 321 335 18 30 213 357 9 176 174 157 167 191 305 130 301 57 59 38 47
274 291 303 307 309 315 315 320 331 332 334 331 332 333 333 334 337 341 298 297 332 298 294 313 250 259 209 222 197 157 267 194 54 152 259 264 322 98 38 280 62 332 320 105 107 11 32 46 231 67 83 82 78 66
275 272 295 296 303 309 311 317 323 325 326 330 331 330 328 325 321 315 289 263 280 255 291 285 325 313 296 180 189 203 141 80 94 351 265 298 277 15 254 204 132 204 39 358 55 39 245 47 40 60 105 109 111 103
274 274 279 290 296 301 305 314 319 323 327 330 329 326 323 322 315 291 218 244 217 277 296 285 306 253 264 202 203 181 138 139 135 173 95 276 291 351 295 65 346 48 171 125 185 250 141 246 10 97 89 86 90 100
271 280 262 281 290 301 310 316 316 319 321 323 322 320 319 318 319 15 303 183 227 193 299 309 296 299 322 246 178 197 172 176 147 150 153 250 258 50 277 308 278 173 202 159 175 167 143 120 144 230 121 122 118 110
273 260 269 276 289 296 308 313 316 318 319 317 314 312 312 307 156 184 211 192 3 287 267 302 304 275 312 272 266 198 151 180 142 193 186 141 257 204 204 207 230 239 223 136 136 120 87 232 157 182 125 103 90 89
255 258 269 272 286 293 307 313 316 316 313 310 308 308 306 298 224 305 252 237 138 279 252 276 272 330 357 350 326 218 204 136 226 219 327 187 215 192 234 237 233 229 169 182 204 175 156 134 122 132 137 123 120 120
243 251 258 268 279 291 305 314 318 317 310 304 304 303 10 168 232 243 136 116 150 143 233 273 294 318 260 264 211 326 113 159 238 184 224 138 241 215 219 202 195 188 179 204 222 169 139 148 174 160 138 139 126 129
235 240 251 261 273 289 304 316 324 321 313 318 96 81 276 244 129 90 29 57 300 239 202 242 258 280 54 348 303 3 358 231 203 225 117 155 237 244 222 220 213 220 213 168 121 161 155 175 192 182 171 171 153 151
236 229 244 256 270 287 306 321 332 328 344 28 8 314 318 289 31 242 244 181 205 209 201 231 205 229 301 96 252 220 275 299 9 265 126 188 315 347 339 288 259 210 201 211 190 188 193 180 185 181 169 156 143 145
229 220 236 251 265 283 303 321 337 1 84 242 273 285 294 299 247 314 248 236 212 243 198 240 261 193 276 104 74 306 234 2 237 293 177 143 255 318 324 333 327 253 222 205 178 176 196 185 162 160 154 169 140 153
221 212 226 242 258 276 293 313 323 316 309 344 136 270 110 288 23 230 337 1 4 333 353 320 312 198 344 6 285 247 258 232 305 36 126 102 273 324 325 327 319 324 221 190 173 155 162 157 140 189 173 151 142 151
208 200 217 237 251 268 284 302 317 330 317 240 189 308 154 275 246 125 203 214 208 242 294 281 310 169 255 352 245 283 257 325 342 29 9 331 335 328 330 323 322 316 286 187 183 136 139 150 179 162 143 152 138 140
193 192 217 239 246 258 275 289 298 323 269 258 209 220 215 244 265 217 206 4 282 272 317 5 5 55 297 303 242 345 295 89 144 192 249 298 305 319 326 320 312 302 281 184 148 107 98 97 99 78 104 115 120 128
173 177 231 229 230 245 259 301 267 206 257 245 252 315 287 54 301 313 24 343 341 352 29 50 31 333 293 339 280 234 307 81 249 251 271 309 313 320 313 305 285 336 49 73 88 103 103 89 121 124 91 88 96 105
154 221 319 195 206 239 254 249 239 227 242 279 271 257 245 207 203 23 73 329 305 54 50 63 338 319 308 270 262 21 46 313 314 311 284 303 309 316 314 91 80 70 72 79 79 85 94 108 102 90 91 85 88 90
187 177 117 129 160 209 236 191 248 249 242 251 260 273 8 32 63 25 14 352 44 27 42 158 215 245 250 251 346 1 287 297 276 286 302 302 297 311 24 58 78 84 79 77 80 83 86 88 91 92 98 99 96 97
159 140 140 115 100 48 264 227 191 280 263 251 273 322 86 88 60 60 23 8 34 33 123 122 237 236 302 5 322 302 305 299 308 310 302 298 287 122 77 76 81 79 76 76 76 78 77 84 97 101 101 103 102 106
110 122 142 134 65 319 287 288 89 214 284 272 18 8 72 25 305 326 322 0 319 102 114 217 265 354 254 295 287 287 291 287 284 300 8 41 42 65 70 85 85 91 88 89 81 77 89 87 77 84 96 102 107 103
11 191 190 157 245 196 253 306 308 218 312 68 338 24 344 339 340 342 345 320 32 33 326 333 291 296 277 272 277 278 282 291 58 71 86 80 59 70 72 75 81 86 87 87 92 83 71 82 86 80 84 83 89 91
276 158 327 213 274 245 300 255 209 296 48 58 16 338 348 340 342 3 345 10 1 308 276 297 291 289 297 293 300 311 77 86 81 79 74 83 84 78 72 70 85 82 77 78 86 91 90 87 78 74 80 75 69 72
176 180 254 236 258 46 262 353 26 26 30 16 333 1 12 0 13 345 30 290 281 269 282 267 274 277 306 26 68 59 60 80 77 72 70 70 67 65 69 64 73 88 83 60 79 82 78 71 77 88 103 110 114 125
289 256 312 314 133 263 340 26 33 36 2 335 357 41 28 12 358 17 332 288 262 285 359 14 28 55 62 57 62 60 60 72 74 65 65 80 73 64 67 70 69 68 79 91 82 84 86 81 84 82 77 91 100 109
53 301 93 323 359 48 18 347 342 322 294 292 86 61 30 22 17 11 339 305 329 349 358 11 44 36 54 66 67 63 46 73 81 79 48 80 94 81 69 63 57 43 17 87 68 79 71 66 64 76 77 76 78 71
105 346 75 93 300 80 317 287 271 326 323 358 67 72 34 40 33 5 294 270 289 302 323 336 350 33 53 56 87 84 77 86 91 83 30 43 76 96 93 93 83 41 24 83 98 86 93 106 99 89 79 67 70 91
25 354 17 28 1 107 276 254 249 266 263 85 90 88 68 58 21 273 272 232 239 237 241 273 287 289 110 95 64 67 81 77 100 124 143 103 78 112 114 115 109 204 196 358 349 73 110 109 104 114 117 129 101 103
212 181 207 275 225 199 258 250 273 23 46 99 110 78 81 132 208 238 242 245 227 268 278 258 220 166 148 165 159 142 100 96 74 61 57 46 52 89 99 89 97 119 115 109 100 95 98 97 79 75 81 117 142 190
243 193 233 269 211 201 268 46 26 329 315 115 126 123 163 220 215 218 282 286 300 329 328 75 51 77 69 62 67 77 108 117 104 100 99 90 51 332 180 140 140 117 126 111 53 98 107 108 101 76 49 34 49 38
202 175 243 322 37 44 12 101 135 344 42 39 54 69 23 320 274 214 278 312 337 347 95 94 87 80 75 74 66 52 45 60 92 122 121 130 209 212 180 171 173 196 182 133 61 20 31 21 31 34 52 63 60 53
149 195 358 34 70 97 228 207 102 102 114 128 147 133 176 227 319 306 260 278 283 74 83 78 69 73 85 76 89 84 46 2 69 77 84 67 49 46 50 41 62 80 72 73 44 90 65 60 75 72 72 77 71 69
83 82 76 53 28 359 45 54 57 79 41 46 35 48 42 43 30 7 334 76 67 63 69 101 110 124 126 110 91 89 119 111 76 69 67 71 69 61 57 42 39 51 85 95 88 93 86 86 89 85 78 70 66 68
80 79 80 64 44 18 312 81 51 87 56 47 69 81 55 82 57 290 332 87 128 122 100 92 97 105 139 135 131 113 97 105 105 93 79 72 83 79 64 46 47 58 69 67 75 76 77 83 82 82 83 82 84 72